STARLINK-32391, 61855

Orbit data source: Space-Track

STARLINK-32391, 61855 is a payload satellite owned by SpaceX/Seattle (US) in LEO that was launched on Thu, 07 Nov 2024 UTC via an FALCON 9 launch vehicle from the Air Force Eastern Test Range (AFETR). Payload-class satellites include a variety of spacecraft equipped with specific instruments for various scientific and technological missions. These include communications satellites like Starlink; space stations such as the ISS; scientific satellites like the Hubble; Earth observation satellites from companies like Planet Labs, Umbra, and HawkEye 360; GPS; miniature CubeSats for education and research; and military/defense satellites.

Loading next visibility...
Identifier
61855, 2024-202L
Orbit
LEO
Last TLE update
1 day ago
Origin
Manufacturer
SpaceX/Seattle
Mission
Operational Commercial Communications
Bus & Motor
STARLINK V2M, Unknown motor
Mass
730 kg wet, ~700 kg dry
Launch date (UTC)
2024-11-07 (8 months ago)
Launch vehicle
FALCON 9
Launch site
Air Force Eastern Test Range (AFETR)
Object type
Payload
Rocket body
Debris
Shape & HBR
Box + 2 Pan, 29 m
Radar Cross Section
33.884 m², Large (>1 m²)

Expand to show TLE details & history

TLE from 1 day ago
0 STARLINK-32391
1 61855U 24202L   25181.12797377  .00000469  00000-0  26567-4 0  9994
2 61855  43.0013 224.1477 0001338 266.0732  93.9967 15.27582851 36709
Epoch: 2025-06-30T03:04Z
TLE epoch observation values (Epoch: 2025-06-30T03:04:16.933Z)
Latitude
-0.00001°
Longitude
-100.3651°
Altitude
482.88 km
Speed
7.626 km/s
True Right ascension
14h 56m 35s
True Declination
0° 00' 00"
Sunlit
Object was in full shadow at epoch
Visualization orbit readout
Latitude
11.34753°
Longitude
-94.30518°
Altitude
482.262 km
Speed
7.627 km/s
Apparent Right ascension
12h 20m 21s
Apparent Declination
-37° 02' 29"
Sunlit
Object is in full shadow
Visualization observer readout
Local Sidereal Time
17:26:58
Azimuth
233.235° WSW
Elevation
-14.195°
Doppler factor
1
Orbital elements
Apogee altitude
485.904 km
Perigee altitude
484.067 km
Semi-major axis
6,863.123 km
Eccentricity
0.00013
Inclination
43.0013°
RAAN
224.1477°
Arg. of periapsis
266.0732°
True anomaly
Unknown
Mean anomaly
93.9967°
Eccentric anomaly
Unknown
Mean motion
3.81734 °/min
Orbital period
94.31 mins
BSTAR
0.000026567
Loading maneuver chart data...
Loading SW <> Apogee altitude chart data...
Loading historical data...
Loading historical data...
Loading historical data...
Loading historical data...
Loading historical data...
Loading historical data...
Loading historical data...

STARLINK-32391 Visibility forecast

Observer location: undefined°, undefined°

Span
Click to sort rows by Start time (UTC) header in descending order
Start Az.
Max El. time (UTC)
Max El. Az.
Max El.
End time (UTC)
End Az.
6 mins2025-07-01 05:57:17.497Z214.576° SW2025-07-01 06:00:17.497Z144.249° SSE30.987°2025-07-01 06:03:17.497Z84.329° E
6 mins2025-07-01 07:36:17.497Z266.119° W2025-07-01 07:39:17.497Z21.423° NNE41.793°2025-07-01 07:42:17.497Z69.921° E
5 mins2025-07-01 09:16:17.497Z297.63° NW2025-07-01 09:18:17.497Z12.335° NNE38.724°2025-07-01 09:21:17.497Z81.266° E
5 mins2025-07-01 10:55:17.497Z280.412° WNW2025-07-01 10:57:17.497Z196.075° SSW43.122°2025-07-01 11:00:17.497Z120.519° SE
5 mins2025-07-02 05:30:17.497Z206.221° SW2025-07-02 05:32:17.497Z154.701° SSE30.489°2025-07-02 05:35:17.497Z86.607° E
|